Content
SEND FEEDBACK

Daily
Averages
Monthly
Summary
United States of America

SMITHFIELD, NORTH CAROLINA


Home > North America > United States > North Carolina
Elevation: 122 feet     Latitude: 35 31N     Longitude: 078 21W

WEATHER
 
SELECT A DAY
Number of Records: 337,460;   Date Range: 9/27/00 - 9/3/14
 
SHARE

PRINT THIS DATA

[ ← Previous Day ]
WEATHER ALMANAC - FEBRUARY 13, 2013
[ Next Day → ]
[ °C ]   °F
Weather ElementAverageHighLow
Temperature46.8 °F50 °F (4:55 pm)44.6 °F (1:15 am)
Dewpoint45.7 °F50 °F (4:55 pm)37.4 °F (11:55 pm)
Humidity96.3 %100 % (1:15 am)71 % (11:55 pm)
Barometer29.77 in29.96 in (12:35 am)29.63 in (3:55 pm)
Wind Speed2.8 mph9.2 mph (4:15 pm)
Wind Gust23 mph (11:55 pm)
Weather ElementAverage
Visibility7.5 mi
Wind DirectionESE (99.2 °)

Weather ElementTotal
Precipitation0.12 in
Heating Degree Days17.7 (Base 65)
Averaged from 71 records on February 13, 2013
WEATHER CONDITIONS BREAKOUT
WIND DIRECTION BREAKOUT
WEATHER BY HOUR - FEBRUARY 13, 2013
[ °C ]   °F
Local TimeTemperatureDewpointHumidityBarometerVisibilityWind DirectionWind SpeedGust SpeedPrecipitationEventsConditions
12:35 AM46.4 °F41.0 °F81 %29.96 in10.0 miCalmOvercast
12:55 AM46.4 °F44.6 °F93 %29.94 in10.0 miCalmOvercast
1:15 AM44.6 °F44.6 °F100 %29.91 in10.0 miCalmOvercast
1:35 AM46.4 °F44.6 °F93 %29.92 in10.0 miCalm0.01 inOvercast
1:55 AM44.6 °F44.6 °F100 %29.90 in10.0 miCalm0.02 inOvercast
2:15 AM44.6 °F44.6 °F100 %29.88 in10.0 miCalm0.02 inOvercast
2:35 AM44.6 °F44.6 °F100 %29.86 in10.0 miCalm0.02 inMostly Cloudy
2:55 AM44.6 °F44.6 °F100 %29.86 in10.0 miCalm0.02 inMostly Cloudy
3:15 AM44.6 °F44.6 °F100 %29.87 in10.0 miCalmOvercast
3:35 AM44.6 °F44.6 °F100 %29.85 in10.0 miCalmOvercast
3:55 AM44.6 °F44.6 °F100 %29.85 in10.0 miCalmOvercast
4:15 AM46.4 °F46.4 °F100 %29.84 in10.0 miCalmOvercast
4:35 AM44.6 °F44.6 °F100 %29.82 in10.0 miCalmOvercast
4:55 AM44.6 °F44.6 °F100 %29.82 in10.0 miCalmOvercast
5:15 AM44.6 °F44.6 °F100 %29.81 in10.0 miCalmOvercast
5:35 AM44.6 °F44.6 °F100 %29.83 in10.0 miCalmOvercast
5:55 AM44.6 °F44.6 °F100 %29.83 in10.0 miCalmOvercast
6:15 AM44.6 °F44.6 °F100 %29.82 in10.0 miCalmOvercast
6:35 AM44.6 °F44.6 °F100 %29.83 in10.0 miCalm0.01 inOvercast
6:55 AM44.6 °F44.6 °F100 %29.83 in7.0 miCalm0.01 inOvercast
7:15 AM44.6 °F44.6 °F100 %29.84 in5.0 miCalmOvercast
7:35 AM44.6 °F44.6 °F100 %29.84 in5.0 miCalmOvercast
7:55 AM44.6 °F44.6 °F100 %29.83 in3.0 miEast (80°)3.5 mphOvercast
8:15 AM44.6 °F44.6 °F100 %29.82 in4.0 miCalmOvercast
8:35 AM44.6 °F44.6 °F100 %29.83 in5.0 miCalmOvercast
8:55 AM44.6 °F44.6 °F100 %29.83 in5.0 miNE (40°)3.5 mphOvercast
9:15 AM44.6 °F44.6 °F100 %29.82 in10.0 miCalmOvercast
9:35 AM46.4 °F46.4 °F100 %29.80 in4.0 miCalmOvercast
9:55 AM46.4 °F46.4 °F100 %29.78 in5.0 miENE (60°)3.5 mph0.01 inOvercast
10:15 AM46.4 °F46.4 °F100 %29.78 in5.0 miNNE (20°)5.8 mphOvercast
10:35 AM46.4 °F46.4 °F100 %29.76 in5.0 miENE (70°)3.5 mphOvercast
10:55 AM46.4 °F46.4 °F100 %29.77 in7.0 miNNE (30°)3.5 mphOvercast
11:15 AM46.4 °F46.4 °F100 %29.76 in5.0 miCalmOvercast
11:35 AM46.4 °F46.4 °F100 %29.76 in10.0 miNNE (30°)3.5 mphOvercast
11:55 AM46.4 °F46.4 °F100 %29.73 in5.0 miCalmOvercast
12:15 PM46.4 °F46.4 °F100 %29.72 in4.0 miENE (70°)4.6 mphOvercast
12:35 PM46.4 °F46.4 °F100 %29.71 in5.0 miCalmOvercast
12:55 PM46.4 °F46.4 °F100 %29.68 in5.0 miCalmOvercast
1:15 PM46.4 °F46.4 °F100 %29.67 in4.0 miCalmOvercast
1:35 PM46.4 °F46.4 °F100 %29.66 in3.0 miCalmOvercast
1:55 PM46.4 °F46.4 °F100 %29.66 in2.5 miCalmOvercast
2:15 PM46.4 °F46.4 °F100 %29.66 in3.0 miCalmOvercast
2:35 PM46.4 °F46.4 °F100 %29.65 in3.0 miCalmOvercast
2:55 PM46.4 °F46.4 °F100 %29.64 in2.0 miSouth (190°)3.5 mphOvercast
3:15 PM46.4 °F46.4 °F100 %29.64 in1.8 miCalmOvercast
3:35 PM48.2 °F48.2 °F100 %29.64 in1.5 miCalmOvercast
3:55 PM48.2 °F48.2 °F100 %29.63 in1.8 miSSW (200°)5.8 mphOvercast
4:15 PM48.2 °F48.2 °F100 %29.65 in2.0 miSSW (200°)9.2 mphOvercast
4:35 PM48.2 °F48.2 °F100 %29.64 in2.5 miSW (220°)3.5 mphOvercast
4:55 PM50.0 °F50.0 °F100 %29.65 in5.0 miSW (230°)4.6 mphOvercast
5:15 PM50.0 °F50.0 °F100 %29.65 in5.0 miWSW (240°)4.6 mphOvercast
5:35 PM50.0 °F50.0 °F100 %29.65 in10.0 miWSW (250°)5.8 mphOvercast
5:55 PM50.0 °F50.0 °F100 %29.67 in10.0 miWest (260°)5.8 mphOvercast
6:15 PM50.0 °F50.0 °F100 %29.67 in10.0 miWSW (250°)4.6 mphOvercast
6:35 PM50.0 °F50.0 °F100 %29.69 in10.0 miWest (260°)6.9 mphOvercast
6:55 PM50.0 °F48.2 °F94 %29.68 in10.0 miWSW (250°)5.8 mphMostly Cloudy
7:15 PM50.0 °F46.4 °F87 %29.70 in10.0 miWSW (250°)8.1 mphMostly Cloudy
7:35 PM50.0 °F46.4 °F87 %29.70 in10.0 miWSW (250°)8.1 mph16.1 mphScattered Clouds
7:55 PM50.0 °F46.4 °F87 %29.71 in10.0 miWest (260°)6.9 mph16.1 mphScattered Clouds
8:15 PM50.0 °F46.4 °F87 %29.71 in10.0 miWSW (250°)3.5 mphScattered Clouds
8:35 PM50.0 °F46.4 °F87 %29.73 in10.0 miWest (260°)8.1 mphMostly Cloudy
8:55 PM50.0 °F46.4 °F87 %29.74 in10.0 miWest (260°)6.9 mphMostly Cloudy
9:15 PM50.0 °F46.4 °F87 %29.74 in10.0 miWest (260°)8.1 mphScattered Clouds
9:35 PM48.2 °F44.6 °F87 %29.76 in10.0 miWest (260°)8.1 mphScattered Clouds
9:55 PM48.2 °F44.6 °F87 %29.77 in10.0 miWest (270°)8.1 mphClear
10:15 PM48.2 °F44.6 °F87 %29.77 in10.0 miWest (270°)5.8 mphClear
10:35 PM48.2 °F44.6 °F87 %29.78 in10.0 miWest (270°)4.6 mphClear
10:55 PM48.2 °F42.8 °F82 %29.79 in10.0 miWest (280°)5.8 mphClear
11:15 PM46.4 °F42.8 °F87 %29.79 in10.0 miNW (310°)9.2 mphClear
11:35 PM46.4 °F41.0 °F81 %29.80 in10.0 miNW (310°)4.6 mphClear
11:55 PM46.4 °F37.4 °F71 %29.82 in10.0 miNNW (330°)9.2 mph23.0 mphClear
Hourly data recorded from KJNX, located miles away from Smithfield, North Carolina







STORIES FROM OUR PARTNERS